Wind_Speed
5 3 3 6 7 8 10 11 10 5 5 5 3 3 4 5 6 5 5 5 1 1 6 6 4 7 11 7 8 8 8 13 12 12 12 11 11 11 11 11 10 11 11 9 8 8 7 7 7 6 6 6 6 7 7 7 8 10 9 8 9 10 8 6 5 4 2 2 2 2 2 2 3 3 4 4 5 7 7 7 8 9 8 8 8 9
4 4 8 11 9 8 7 9 7 2 3 3 2 2 4 5 6 7 6 5 1 4 4 2 2 8 10 4 8 7 8 8 8 11 12 12 12 12 12 13 12 12 11 11 11 11 11 11 11 11 11 11 12 13 14 14 16 16 16 16 16 15 14 13 12 10 8 8 6 5 5 4 3 2 1 2 3 4 6 8 9 11 12 12 12 12
2 4 12 11 4 3 2 4 5 3 2 2 2 2 4 4 4 7 6 5 0 4 4 1 3 8 7 2 7 8 9 8 9 12 12 13 13 13 13 14 14 14 13 14 15 16 16 16 17 17 18 19 20 22 22 22 22 22 23 23 22 21 21 20 19 17 15 14 12 10 10 9 8 8 6 5 3 2 2 4 6 8 10 12 14 15
3 7 11 7 5 4 2 4 7 3 2 2 3 3 4 3 1 4 5 5 2 1 2 2 3 6 4 2 6 8 11 13 13 14 13 13 13 13 14 15 15 16 16 18 19 20 21 22 23 24 25 25 26 27 27 26 26 26 26 25 24 24 24 23 22 21 20 17 16 16 15 14 14 14 13 11 10 8 6 5 4 4 6 8 10 11
7 8 3 4 6 6 4 4 6 5 1 3 5 6 5 4 5 6 4 5 4 3 2 1 3 5 4 3 2 6 10 13 13 14 14 12 13 13 14 16 16 17 19 21 23 24 25 26 27 28 27 27 27 28 27 26 26 25 25 24 23 23 23 23 22 21 19 17 17 17 17 17 17 18 16 14 14 13 11 10 8 7 5 5 5 7
9 8 2 5 3 5 5 6 5 7 3 4 6 9 9 8 8 6 2 5 4 4 3 2 3 5 4 2 3 4 4 6 7 10 12 11 12 13 14 16 16 18 20 23 25 26 27 28 27 27 26 25 26 26 25 25 24 24 23 23 22 22 22 22 21 19 17 16 16 15 15 16 15 15 15 15 15 14 12 12 11 9 8 6 5 5
5 6 4 5 4 6 6 5 5 7 5 3 5 8 9 7 6 5 1 2 0 3 2 2 1 5 5 1 4 5 4 4 4 6 8 10 11 13 15 16 16 19 21 23 25 26 26 26 25 24 24 24 25 25 23 23 23 22 22 21 21 21 21 20 19 17 15 14 13 12 12 12 12 13 14 15 14 12 12 11 10 9 8 7 6 5
3 3 2 5 5 5 5 5 6 7 7 3 4 6 7 6 6 5 5 4 3 2 4 3 2 3 5 3 4 6 6 3 2 3 5 9 11 13 15 15 17 19 21 23 24 24 24 23 23 23 23 23 23 22 21 21 21 21 20 19 19 19 18 18 16 14 13 12 12 11 11 11 12 12 13 13 11 11 10 9 8 8 8 8 7 6
2 2 4 6 5 4 6 4 7 9 4 5 3 6 6 6 6 4 5 3 1 2 4 4 1 2 6 3 1 3 3 3 5 5 5 9 12 13 15 15 17 19 21 23 24 23 23 22 22 22 21 21 20 19 19 19 19 18 18 17 16 17 16 16 14 13 13 12 12 11 10 11 12 12 12 11 10 10 8 7 7 7 7 7 7 7
0 2 4 7 5 5 4 1 6 9 4 4 6 7 5 5 5 4 4 3 2 1 4 6 4 2 5 3 3 2 4 6 6 4 6 10 13 13 15 16 17 20 21 22 22 22 21 21 21 20 19 19 18 17 16 16 16 15 15 14 14 15 15 14 13 12 12 12 11 11 10 11 11 11 10 8 8 8 7 6 6 6 6 6 6 7
2 1 1 3 4 5 4 3 1 4 3 7 7 5 6 5 4 3 2 4 2 3 5 9 9 5 4 4 4 4 3 4 6 5 6 10 14 15 16 17 19 21 21 21 21 21 20 20 19 18 17 16 15 15 13 13 13 12 13 12 12 13 12 11 10 10 10 9 9 9 9 9 9 8 6 5 6 7 6 6 6 7 6 6 6 7
4 2 2 2 4 5 7 5 3 3 3 6 4 4 3 4 4 4 4 3 1 5 3 4 5 5 5 5 3 4 3 2 5 7 9 12 16 19 19 20 21 21 21 21 20 20 19 18 17 16 14 14 13 12 10 10 10 10 11 11 11 11 10 9 8 7 7 7 6 6 5 5 6 5 3 3 5 5 5 6 7 6 6 6 5 5
3 4 3 1 3 5 6 4 3 5 4 4 4 5 3 2 3 2 3 0 3 6 3 1 1 2 7 6 3 4 4 4 6 8 14 20 22 23 23 22 22 22 22 21 20 20 19 17 16 14 12 12 10 9 8 8 8 8 9 9 9 8 7 7 6 5 5 4 3 3 2 3 3 2 2 3 4 4 5 5 5 4 5 5 5 6
3 5 1 1 2 7 8 5 2 1 2 4 4 5 4 2 1 3 3 1 4 5 2 1 2 2 5 3 3 4 5 7 9 11 18 27 29 28 26 25 24 23 22 21 20 19 18 16 14 12 10 9 8 7 6 6 6 6 6 6 6 5 4 3 2 1 1 1 1 0 0 1 1 2 3 3 4 4 5 5 5 6 6 7 7 8
2 4 3 5 2 6 9 6 6 5 4 3 3 4 4 4 4 4 3 3 4 4 3 1 2 3 3 1 2 3 3 3 3 9 19 26 29 29 27 26 26 25 23 22 20 19 17 15 13 11 9 7 6 5 4 4 3 3 3 3 2 2 2 1 1 2 2 2 2 1 1 1 1 1 2 2 3 4 5 6 7 8 8 9 10 10
3 5 6 2 0 6 7 4 6 7 2 2 2 3 2 4 4 2 3 5 3 2 3 2 3 4 4 1 1 2 4 5 6 13 20 24 26 27 27 27 27 25 24 22 21 19 17 15 13 10 8 6 5 4 3 2 2 1 1 2 2 2 2 3 3 3 3 3 3 3 2 1 1 0 1 2 3 3 4 6 7 8 9 9 10 10
2 4 5 2 2 2 4 4 4 3 3 2 2 3 4 4 5 2 2 1 3 2 4 2 3 5 1 1 3 4 4 5 5 11 17 22 25 26 27 28 28 26 25 24 22 20 17 15 13 10 8 7 5 4 3 3 4 4 4 4 4 4 5 5 5 5 5 4 4 4 3 3 2 2 1 0 1 2 3 4 5 5 6 7 8 9
4 3 5 2 2 2 2 4 3 3 4 5 2 5 3 2 3 3 1 2 1 4 4 1 5 4 2 2 2 3 0 2 4 7 12 18 23 25 27 29 28 27 26 24 22 20 18 16 13 11 9 7 7 6 6 6 7 7 7 7 7 6 7 7 6 6 6 5 5 4 4 3 3 2 2 1 1 1 1 1 2 3 4 5 6 7
4 1 6 1 3 2 2 4 2 3 3 5 3 3 3 2 1 2 2 2 2 5 4 3 5 5 5 5 1 3 8 8 7 7 9 15 21 24 27 29 30 29 27 26 24 22 20 17 14 12 10 10 9 9 9 9 9 8 8 8 8 8 8 7 7 6 6 5 5 4 3 2 2 1 1 1 2 2 3 3 4 5 6 6 7 8
3 2 4 2 0 1 3 2 3 2 0 3 1 0 1 2 3 2 2 2 3 5 5 4 5 4 5 6 7 10 12 12 11 10 10 16 23 28 31 33 33 32 30 28 25 23 20 17 14 13 12 11 11 11 11 11 10 10 9 9 9 9 8 8 7 6 5 5 4 3 3 3 3 3 4 5 6 6 7 8 9 10 10 11 10 11
2 2 3 2 2 1 1 2 6 6 4 3 2 2 2 1 1 1 2 2 3 4 4 5 6 5 4 3 7 8 8 12 15 13 12 19 27 31 35 36 36 33 31 27 25 23 21 18 16 15 14 13 13 14 13 12 12 11 11 10 10 9 8 7 7 6 5 5 4 3 3 3 4 5 6 7 8 10 10 11 12 12 13 13 13 13
2 3 3 2 1 3 4 4 4 5 4 4 5 6 6 4 2 3 5 2 2 3 4 4 6 6 3 0 2 4 4 10 16 14 14 22 30 33 36 36 35 32 29 26 23 22 21 20 18 17 16 15 15 15 14 13 13 12 12 11 10 9 8 8 7 6 5 4 3 3 4 5 7 8 9 10 11 12 13 14 14 14 15 15 15 16
2 3 2 2 3 4 5 3 1 3 2 3 3 4 4 4 4 6 8 4 1 2 1 1 4 5 1 0 2 4 5 11 18 18 17 23 31 33 34 34 32 31 28 25 23 23 22 21 20 18 17 16 16 15 15 15 14 13 12 12 11 10 9 8 6 5 4 4 5 6 7 9 10 11 12 13 14 15 15 16 16 16 16 16 16 17
3 2 2 2 2 2 4 4 3 2 3 2 2 1 3 3 3 4 6 2 1 3 1 1 5 5 1 1 2 2 4 10 18 21 21 24 29 31 32 33 33 33 31 27 24 23 23 23 22 21 19 18 17 17 17 16 15 15 14 13 12 10 9 8 7 6 6 6 7 8 10 11 12 13 14 15 16 17 18 19 19 19 20 20 20 21
4 1 3 1 2 3 3 3 3 3 0 2 3 1 2 2 3 1 1 2 1 4 5 3 8 5 2 3 4 4 2 5 11 18 19 20 23 28 32 34 35 35 33 30 27 25 25 25 25 24 22 20 19 18 18 18 17 16 15 14 12 11 10 9 8 7 7 8 8 10 11 12 14 15 16 17 18 20 20 21 22 23 23 24 24 25
5 2 4 5 6 8 6 4 4 3 1 1 2 3 4 4 5 2 1 3 4 3 6 7 8 4 3 4 4 4 4 2 5 11 14 14 17 25 31 34 36 36 34 33 30 28 27 27 26 25 23 21 20 19 20 20 19 18 16 15 14 13 12 10 9 9 9 9 10 11 12 14 16 17 18 19 20 21 22 23 24 24 25 25 26 26
3 1 4 6 8 9 6 6 5 4 3 3 5 7 6 5 6 4 2 3 4 3 5 7 4 0 2 3 4 4 1 1 5 8 13 16 18 23 29 33 34 34 34 34 32 30 28 27 27 25 23 22 20 21 21 21 21 20 18 16 15 14 13 11 11 11 11 11 12 13 15 16 17 18 19 21 22 23 24 24 25 26 26 26 27 27
3 3 6 7 9 7 2 4 4 5 6 8 8 10 8 5 6 6 5 6 5 4 8 7 4 3 6 5 5 6 4 4 6 9 15 19 20 22 26 28 30 31 33 33 32 30 29 28 27 25 23 22 22 22 23 23 22 21 18 16 15 14 13 13 13 14 14 14 15 16 17 18 19 20 22 23 25 26 27 27 28 28 28 28 28 29
3 5 6 5 7 6 2 2 4 5 4 4 6 9 7 6 7 8 10 9 6 6 10 6 6 7 8 6 6 9 8 8 10 14 17 19 19 21 22 24 26 29 31 32 31 31 29 28 27 26 24 23 23 24 25 24 22 20 18 16 15 15 15 15 16 17 17 18 18 19 20 20 21 22 24 27 28 29 30 31 31 31 31 31 31 31
3 3 3 5 5 5 3 3 3 4 4 4 7 10 6 6 8 10 10 6 5 7 10 7 5 8 9 7 7 9 10 10 13 17 17 17 18 20 21 24 26 28 29 27 26 25 24 24 26 26 25 23 24 25 25 23 22 20 18 17 16 16 16 16 18 20 20 21 21 21 21 22 23 24 26 29 31 33 33 33 33 33 33 33 33 33
3 2 2 4 3 4 2 2 2 2 3 5 10 10 3 4 8 11 7 2 2 7 10 8 8 10 10 7 7 11 13 12 15 19 19 20 21 22 23 25 25 23 20 17 16 16 17 20 23 25 25 24 24 24 24 22 21 19 18 16 16 16 16 18 20 21 23 23 23 22 23 23 24 26 28 31 33 35 35 35 35 35 34 34 34 35
3 2 2 4 3 3 1 3 3 2 2 7 14 11 6 6 10 8 4 5 9 11 9 6 7 9 8 3 5 11 14 12 14 18 20 20 21 21 22 20 17 14 11 11 12 14 16 18 21 23 24 23 23 23 22 21 19 19 17 16 16 17 17 20 22 24 25 25 25 24 24 25 26 27 30 33 35 36 36 36 36 36 35 35 35 37
4 4 2 3 4 2 2 3 3 4 3 9 12 9 11 11 12 7 4 9 12 8 6 7 8 8 5 1 3 8 10 9 13 17 18 19 18 17 16 13 10 10 10 11 13 13 15 17 18 19 20 20 21 21 20 19 18 18 17 18 19 19 20 23 25 26 27 27 27 27 26 26 27 29 32 34 36 36 36 36 36 36 36 36 37 39
4 5 3 3 3 2 2 4 5 1 6 8 3 4 10 12 12 11 11 12 9 6 6 6 5 4 3 5 8 10 9 9 12 15 15 14 14 14 14 12 11 11 11 12 12 13 13 14 15 16 16 16 17 17 16 17 18 18 20 21 23 24 24 26 28 28 29 29 29 28 27 28 28 30 34 35 36 36 35 36 36 36 36 38 39 40
5 5 3 2 2 2 2 3 4 8 7 3 1 2 5 7 8 10 10 9 8 8 8 7 7 7 9 12 14 14 14 12 12 13 11 9 12 13 12 12 12 12 12 11 12 12 12 13 14 15 15 15 15 15 16 18 20 22 24 26 27 28 29 29 30 30 30 30 30 29 29 29 29 32 35 35 35 36 36 36 36 36 37 39 40 41
7 5 2 2 3 1 2 4 8 6 2 3 4 2 3 3 3 2 5 9 10 10 9 8 10 12 13 16 17 15 15 13 12 12 10 9 11 12 11 12 12 12 13 12 12 12 12 12 13 12 13 13 14 16 18 20 22 24 26 28 29 30 31 31 30 30 31 31 31 30 29 29 31 33 34 35 35 36 36 36 37 37 39 40 41 41
6 5 2 2 4 2 3 6 5 4 5 10 8 4 5 4 5 4 4 9 9 7 9 9 10 13 13 13 13 12 10 7 8 10 10 10 10 12 12 12 11 12 13 11 10 10 9 9 10 10 11 13 15 17 20 21 23 25 26 28 29 30 31 30 31 31 31 31 31 30 29 29 31 33 34 35 36 36 37 37 37 39 40 41 42 41
2 3 4 5 4 2 3 4 4 3 8 11 6 4 6 7 7 7 4 7 6 7 14 13 10 10 8 6 7 7 6 2 4 7 10 10 11 13 14 14 12 12 12 11 10 9 9 10 11 12 13 15 17 19 21 22 24 25 26 27 27 28 29 30 30 31 31 31 30 28 28 29 31 32 33 35 36 37 37 37 38 40 40 41 42 41
3 2 1 3 1 2 3 5 6 7 8 6 5 3 4 9 10 8 2 6 6 9 19 16 9 9 10 10 12 11 7 2 5 9 10 10 12 15 15 14 13 13 13 13 13 13 12 12 13 14 16 17 19 20 21 22 23 24 25 26 27 28 29 29 30 31 30 29 28 27 28 30 31 32 33 35 37 37 37 38 39 40 40 40 41 41
3 2 0 3 4 5 5 4 4 5 5 4 5 4 5 10 11 9 2 8 6 10 18 17 13 14 15 16 15 10 6 6 8 11 13 11 11 14 14 14 14 14 15 16 16 15 14 14 15 17 19 20 21 21 21 21 22 24 25 26 27 29 29 30 30 29 28 27 27 28 29 30 31 32 34 35 36 36 37 38 39 39 39 39 39 39
1 0 1 4 6 8 8 6 4 4 5 5 6 11 13 9 7 4 5 7 8 12 15 17 17 17 18 18 16 11 12 14 13 16 15 12 12 14 14 14 15 17 19 19 17 16 15 16 18 20 22 22 22 22 22 21 22 24 26 27 28 29 30 30 30 28 27 27 28 29 30 30 32 33 34 34 35 36 37 37 38 38 38 38 38 39
2 1 1 4 5 5 6 5 3 5 7 8 9 13 15 8 1 6 5 5 11 14 13 15 17 17 18 19 18 17 18 17 16 18 18 17 15 14 13 14 17 20 23 21 19 18 18 19 21 22 22 22 22 23 23 23 23 25 27 28 30 30 30 30 29 28 28 28 29 30 31 31 32 33 33 34 35 36 37 37 36 36 36 36 37 38
5 4 2 4 4 3 2 4 3 7 6 18 17 7 5 6 6 6 7 8 10 10 10 14 16 16 18 19 20 20 19 18 19 20 20 19 17 15 15 17 19 22 24 24 22 21 20 22 23 22 22 22 22 23 24 24 25 26 28 30 30 31 31 30 29 29 29 30 30 30 30 31 32 33 33 34 35 36 37 36 35 35 35 34 35 37
4 5 4 4 3 5 4 7 5 2 9 27 23 7 11 18 15 8 7 8 9 9 11 14 16 17 19 19 18 19 20 21 22 22 21 20 19 19 20 20 19 21 24 26 26 24 23 24 24 23 22 22 23 25 26 26 27 28 29 30 31 31 31 30 29 30 30 30 30 30 30 32 32 33 33 34 35 36 36 35 34 34 33 33 34 35
6 5 5 4 4 5 5 7 4 4 14 28 24 15 19 24 23 17 13 13 13 13 15 16 16 16 16 17 18 19 21 23 24 23 22 21 21 21 21 20 20 21 23 26 28 27 26 26 25 23 23 23 24 26 27 28 29 29 30 31 31 31 31 30 30 31 31 30 30 30 31 32 32 32 33 33 34 35 34 34 34 33 33 32 33 34
4 3 4 2 2 3 5 6 3 5 14 26 25 19 19 19 20 22 22 22 20 19 18 17 16 15 15 18 21 22 23 25 25 25 24 23 23 23 22 22 22 22 23 26 28 29 29 28 25 24 23 24 25 26 27 29 30 30 31 31 31 31 31 31 31 31 30 31 31 31 32 32 32 32 33 33 33 33 33 32 32 33 32 32 32 33
3 5 5 2 2 3 4 5 6 7 14 22 24 22 21 19 21 23 24 24 24 23 22 20 18 18 20 22 23 24 25 25 26 27 26 26 26 25 24 24 24 24 25 27 28 30 30 28 26 24 24 25 26 26 28 30 31 31 31 31 31 31 31 31 31 31 30 30 31 31 31 31 32 32 32 32 32 32 31 30 30 31 32 31 31 33
4 6 5 3 5 5 4 4 6 7 11 17 21 23 22 23 24 25 24 24 24 24 24 23 21 22 24 25 26 27 27 27 27 29 28 28 28 28 27 27 28 27 27 27 28 29 30 28 25 24 24 25 26 27 28 30 31 31 31 31 31 31 31 31 31 31 30 30 30 30 30 31 32 32 33 32 31 31 30 29 29 30 30 29 29 31
4 6 5 4 4 4 4 3 4 2 4 12 20 23 24 25 26 24 24 26 26 26 26 26 25 26 27 27 28 29 29 29 30 30 30 30 29 29 28 29 30 29 28 28 28 29 29 27 24 24 24 25 26 28 30 31 31 31 30 31 31 32 31 31 31 30 30 29 29 29 30 31 32 32 32 32 31 30 29 28 28 28 29 28 28 29
5 3 3 3 4 4 4 7 8 4 5 12 20 25 28 28 27 26 26 27 28 29 29 28 28 28 27 27 28 28 29 31 31 31 32 32 30 28 29 30 30 29 28 27 27 28 28 26 24 24 25 26 27 29 30 31 31 31 31 31 32 32 31 31 31 30 29 28 29 29 30 31 31 31 31 31 31 31 30 28 26 26 28 29 28 27
11 9 7 7 7 6 7 14 18 13 9 15 23 27 26 24 25 26 28 28 28 28 28 27 27 27 27 26 26 27 28 30 31 31 32 31 28 28 30 31 29 27 26 26 27 28 28 26 25 26 27 27 29 30 30 30 30 31 31 31 31 31 31 30 30 29 28 28 28 29 30 31 31 31 30 30 30 30 31 31 28 25 23 25 27 27
Wind_Direction
153 142 183 221 215 199 203 202 206 197 145 143 140 155 205 232 264 266 260 265 161 190 270 251 239 268 267 279 7 35 97 103 110 113 105 108 106 105 103 96 91 85 81 81 83 85 87 93 97 103 108 113 113 101 94 94 91 89 90 95 93 87 85 89 90 94 123 144 146 162 166 161 162 182 209 216 221 227 232 239 246 252 251 248 249 254
134 166 223 230 218 200 202 204 209 202 124 108 138 225 263 240 257 264 258 282 185 179 263 240 191 271 267 295 9 43 86 82 106 115 109 112 108 106 104 99 98 95 97 101 99 98 98 100 102 104 108 110 105 100 96 92 90 89 92 93 90 89 92 91 89 90 93 94 88 89 96 93 104 125 170 217 237 251 250 253 256 258 258 254 253 254
130 212 238 236 195 148 153 150 171 204 155 102 125 193 265 248 278 284 277 313 93 174 259 213 185 262 274 24 28 49 80 80 106 120 119 118 113 109 108 105 107 108 108 108 105 104 103 103 104 103 101 99 95 93 91 88 87 88 87 87 86 87 87 85 85 87 85 83 81 82 86 84 85 88 79 73 61 21 306 281 275 271 269 265 263 261
190 238 244 225 144 153 217 140 128 122 116 129 144 166 246 250 315 279 287 332 358 165 262 229 229 272 281 77 47 57 87 93 102 113 115 118 115 113 115 114 115 112 109 107 105 104 103 103 102 99 96 94 93 92 91 89 87 86 85 84 85 85 84 84 84 83 80 80 81 82 83 83 83 82 77 74 71 62 51 34 1 325 300 287 279 274
224 245 232 134 141 167 219 219 148 137 230 235 203 196 225 237 218 227 281 335 335 355 2 311 308 291 255 215 104 79 91 91 98 107 106 111 116 119 122 120 118 114 110 109 108 106 105 103 100 98 97 96 94 92 89 87 85 83 83 81 81 81 81 81 80 79 79 79 81 82 83 83 82 83 83 81 78 74 70 65 55 42 23 353 324 306
248 249 153 106 115 153 197 236 189 159 192 273 234 206 211 224 227 234 324 6 359 344 347 18 324 292 292 262 167 140 96 84 94 102 103 113 121 126 126 122 121 117 114 113 110 108 105 103 101 99 97 94 90 87 84 83 82 80 79 78 76 76 75 75 74 74 75 75 78 79 82 84 85 87 87 84 81 81 79 75 69 63 55 43 24 1
253 247 186 156 145 156 194 242 221 167 146 279 244 198 200 208 218 229 177 90 103 259 294 52 190 271 304 294 177 162 123 101 101 99 113 126 128 132 130 128 128 122 119 116 112 110 107 104 101 97 93 89 85 83 82 80 78 76 75 74 73 72 72 72 72 71 72 73 75 75 77 81 81 80 81 81 80 79 77 76 74 72 71 66 55 42
219 228 176 161 142 152 195 237 224 161 131 239 237 155 160 176 192 200 163 166 223 254 319 5 123 264 288 261 199 155 125 117 147 126 133 140 138 141 139 137 134 128 124 120 116 113 109 105 100 95 91 88 85 83 81 77 75 72 70 68 68 68 69 71 70 69 68 67 66 64 61 65 68 70 76 80 80 78 77 77 75 71 71 68 62 55
186 196 205 172 147 178 207 225 190 154 148 244 205 122 133 151 157 139 127 160 300 39 306 294 135 257 272 259 177 146 150 222 204 183 175 160 154 153 149 146 140 134 129 125 121 116 111 107 101 97 93 89 86 84 79 75 71 68 66 63 62 63 64 65 64 60 58 56 53 52 47 50 60 67 73 79 80 81 80 78 76 69 61 56 51 47
66 232 220 158 154 207 214 261 179 169 195 200 131 94 73 78 89 87 104 116 39 14 240 232 176 216 272 241 160 197 254 237 198 182 193 174 165 162 157 154 147 139 134 129 125 120 115 111 105 101 99 95 90 84 77 73 70 67 65 60 57 58 57 56 54 47 46 47 45 45 44 47 58 68 75 80 81 81 80 76 75 69 58 48 39 36
308 317 256 156 178 191 142 67 149 173 157 133 110 69 47 31 42 50 53 87 53 288 220 203 188 184 264 267 190 196 227 199 163 167 193 179 173 171 165 160 152 145 141 136 131 126 121 116 111 107 104 98 91 85 80 75 71 67 64 58 53 56 56 52 49 43 42 46 45 47 52 56 65 75 80 78 75 77 75 64 63 59 53 46 36 30
327 326 280 228 184 136 100 66 34 37 96 112 90 78 75 340 5 26 356 51 135 257 234 213 196 179 233 262 228 224 246 194 178 178 181 179 179 177 171 166 158 151 148 143 138 132 127 122 117 113 106 98 93 88 83 78 71 65 62 55 50 54 55 50 46 41 38 38 40 49 59 63 72 82 75 54 59 66 60 53 58 57 53 51 46 36
301 244 267 300 194 156 114 73 30 12 40 87 95 102 100 327 352 348 306 95 224 250 253 241 158 202 242 244 213 233 270 267 247 215 184 177 178 178 175 169 163 159 156 151 146 139 133 128 124 119 110 102 98 92 84 78 68 60 57 52 47 49 49 44 37 31 26 19 27 47 52 54 63 61 41 39 48 53 52 53 55 49 42 39 35 31
287 290 292 113 244 195 160 138 170 236 135 147 148 136 132 128 165 263 266 266 269 269 273 212 178 250 274 270 193 230 273 282 275 243 196 179 177 177 175 171 167 166 164 159 153 145 140 136 132 126 118 111 107 98 86 77 67 56 55 52 46 49 52 48 39 15 342 304 307 314 344 38 45 19 14 23 34 41 41 38 30 26 24 22 21 22
210 302 212 178 212 188 180 175 162 144 149 186 164 137 149 155 173 216 218 214 256 284 291 230 180 202 230 253 223 230 288 317 260 200 184 178 177 176 175 174 174 172 170 166 158 152 148 145 141 137 132 128 123 109 92 85 76 58 59 61 51 68 102 154 190 211 229 237 235 228 246 283 331 355 4 15 27 32 27 22 18 16 17 16 17 18
170 264 249 241 92 166 182 180 131 112 127 218 114 108 172 182 167 189 203 178 175 296 285 203 213 225 194 163 3 56 60 60 110 149 161 170 176 177 180 182 180 177 174 170 164 160 159 157 154 152 150 149 146 134 125 131 138 138 159 167 164 164 175 187 194 206 211 208 206 202 206 215 224 295 355 14 23 22 17 12 6 3 4 5 6 7
139 272 281 352 2 186 178 175 136 129 179 166 125 189 223 182 134 120 268 127 103 257 262 194 243 283 304 30 14 40 60 66 110 145 158 169 175 181 186 186 183 180 177 173 170 168 168 167 167 167 168 171 173 174 180 191 195 196 195 190 186 184 185 187 191 195 193 189 189 189 188 185 180 180 191 177 11 11 11 1 351 349 346 344 345 348
144 267 275 149 191 267 147 135 76 71 133 127 177 215 201 120 96 99 249 335 47 244 266 238 234 259 262 254 346 21 137 184 180 173 169 175 181 187 191 189 185 183 181 179 177 178 178 177 177 179 183 189 193 199 205 206 204 199 194 190 187 187 185 185 185 182 181 179 180 183 181 179 175 170 163 135 91 49 27 338 323 319 316 321 329 335
131 251 281 180 166 267 47 104 63 14 108 131 187 198 120 145 203 114 175 225 234 238 265 273 247 242 225 219 202 214 214 204 195 191 187 188 191 194 195 192 190 188 188 187 185 185 186 185 188 190 195 201 204 207 209 208 205 199 195 192 190 190 186 183 181 178 181 185 189 197 197 204 223 253 295 324 340 341 334 326 326 327 328 333 335 336
126 174 276 323 189 216 42 95 177 238 1 97 114 31 76 175 186 165 172 191 215 230 249 257 247 252 243 203 177 201 206 188 184 193 199 197 195 196 195 194 194 193 192 191 190 191 192 192 196 200 205 211 212 213 212 210 206 201 199 198 195 194 191 189 190 192 200 210 219 235 250 271 291 310 319 326 331 330 329 329 330 332 332 334 335 334
120 178 237 314 342 147 167 208 189 189 185 150 160 205 232 206 164 247 231 144 160 201 225 242 245 255 264 198 178 208 208 183 185 190 193 197 198 199 198 196 196 194 193 194 195 197 199 201 204 207 210 214 214 216 216 212 208 205 204 204 202 202 201 202 205 208 216 225 235 252 276 302 321 330 332 333 331 329 328 328 327 327 327 328 328 327
167 180 182 175 154 183 223 237 207 203 194 176 193 203 202 189 175 243 247 203 163 192 192 225 256 259 259 211 189 223 206 186 191 189 186 196 200 202 202 200 198 196 196 198 200 202 205 208 211 213 215 218 219 221 219 215 213 212 212 213 211 210 209 209 213 217 227 242 265 292 308 318 324 325 325 325 325 324 324 323 322 322 321 321 321 320
129 133 169 209 200 210 249 275 247 228 168 141 209 205 182 175 173 216 236 222 174 239 145 106 270 263 251 295 246 242 228 201 194 187 186 198 203 205 206 203 201 200 201 203 206 209 212 215 219 221 222 225 227 226 223 220 219 219 218 218 215 214 214 217 224 235 255 278 292 299 305 309 311 314 315 317 319 319 319 319 319 318 317 317 317 315
105 117 180 268 298 316 314 327 342 16 87 125 256 180 149 184 184 214 229 186 161 240 180 76 259 255 294 332 304 280 234 199 192 191 192 199 205 207 207 203 204 207 209 210 212 214 217 219 223 226 228 230 230 229 226 224 223 221 220 220 219 220 224 229 239 251 264 278 288 294 300 304 307 310 313 315 317 317 318 317 317 316 316 315 314 314
179 160 140 183 300 315 321 324 316 323 31 196 245 250 191 172 107 93 210 138 213 220 167 207 252 250 299 328 354 23 73 162 191 198 200 203 207 209 207 205 209 214 215 215 216 219 220 222 225 229 232 234 233 232 229 227 227 224 223 224 226 229 232 236 244 254 266 278 289 296 301 304 306 309 312 313 315 315 314 313 312 312 311 311 311 311
174 178 149 176 224 237 236 225 222 239 237 203 243 244 227 191 163 173 189 185 228 210 172 220 254 267 321 326 339 7 50 96 201 205 208 214 213 213 211 211 217 222 222 220 221 222 222 224 228 231 234 237 238 235 231 229 230 227 225 228 231 234 236 241 250 260 270 280 288 295 300 304 307 309 311 313 314 313 312 310 309 308 307 307 307 308
125 199 194 195 220 230 224 218 198 152 157 214 233 228 220 201 184 175 146 191 217 213 216 234 237 252 282 277 281 296 347 206 234 217 214 217 216 219 220 220 225 229 229 227 227 227 226 227 231 234 238 241 241 238 233 231 232 230 228 230 233 238 242 249 259 267 274 282 289 295 299 303 306 309 312 315 316 315 313 311 309 307 306 305 305 307
99 225 216 207 233 242 204 204 195 162 188 210 217 226 223 191 170 179 206 218 189 199 245 237 160 185 243 228 225 246 234 221 234 225 223 223 222 225 228 230 235 237 236 235 234 232 230 229 234 239 242 244 242 237 233 232 233 233 232 234 237 244 252 259 267 273 279 284 290 294 297 302 306 311 316 319 319 317 315 313 311 308 306 306 306 308
129 227 215 192 235 247 166 196 199 181 214 219 213 229 222 181 176 200 225 225 186 208 253 244 166 205 241 222 206 221 217 215 229 234 236 236 234 236 238 241 244 243 239 237 236 237 237 237 241 245 245 244 240 235 233 233 234 234 235 238 243 252 260 267 272 277 281 284 289 293 296 301 307 313 317 319 319 318 315 313 311 309 308 306 307 308
157 217 188 165 225 243 202 217 198 185 235 253 241 241 221 182 198 216 230 224 184 226 260 266 241 242 247 228 216 229 231 232 245 248 246 245 248 250 251 251 251 249 244 241 243 247 249 249 249 248 245 243 240 237 237 239 239 238 240 244 251 258 264 269 274 278 280 283 287 291 294 299 305 310 314 316 317 316 313 311 309 307 306 305 305 307
182 197 127 138 207 256 216 175 138 180 235 249 254 252 205 177 223 232 237 219 202 244 253 259 268 267 262 241 226 248 252 241 245 250 250 253 254 253 253 254 253 250 246 244 245 247 249 249 248 246 243 243 243 241 243 245 243 242 244 249 256 263 268 271 274 275 276 279 283 286 291 296 301 307 311 313 314 312 310 308 306 305 304 303 304 305
183 192 80 123 203 244 174 148 146 78 352 266 261 250 193 202 237 232 204 204 222 237 244 247 256 260 263 231 196 243 248 233 235 245 250 256 257 253 250 248 245 240 234 234 236 238 240 241 242 243 243 245 246 245 247 248 246 245 248 256 264 268 268 268 268 268 269 273 278 282 287 292 296 302 308 310 309 308 306 305 304 303 302 302 303 303
159 156 126 155 204 208 117 137 124 56 339 265 258 230 194 216 242 241 228 229 223 216 217 228 237 248 261 214 204 243 241 226 238 247 250 256 256 249 241 234 228 226 226 232 236 237 239 239 240 243 247 250 251 250 250 249 249 252 258 264 267 266 263 261 261 263 265 269 274 278 282 285 291 299 306 307 306 304 303 302 301 301 301 301 302 303
158 156 164 179 188 186 147 111 106 151 250 253 262 177 189 209 226 231 240 240 224 198 206 229 251 260 247 224 233 246 244 242 254 262 263 257 244 235 232 229 229 228 230 236 236 233 235 237 239 243 247 250 249 248 248 249 252 257 261 262 262 260 259 259 259 260 262 266 271 274 278 282 290 301 305 304 303 301 300 300 299 299 299 300 301 302
166 157 163 153 122 150 131 116 176 222 236 252 352 191 192 193 203 223 250 257 239 223 223 238 255 249 236 233 238 247 257 265 271 272 267 243 227 230 234 233 233 233 237 240 236 231 228 228 232 237 240 242 240 239 243 248 252 256 258 259 260 260 260 260 259 260 261 264 269 272 275 282 293 302 304 302 301 300 299 298 298 298 298 300 302 302
162 157 138 131 132 119 124 185 220 244 296 286 254 194 123 119 157 216 283 272 247 227 212 217 238 244 242 243 246 255 265 271 270 261 244 222 224 233 237 240 241 242 245 243 238 234 227 224 228 233 237 242 242 243 248 252 255 257 257 259 260 261 262 262 261 261 261 264 267 270 275 285 296 301 302 301 300 299 298 297 297 298 300 302 303 303
152 153 135 178 191 163 166 214 247 335 308 271 255 191 166 178 168 167 243 264 253 216 186 193 229 243 243 247 256 257 251 258 271 254 225 212 226 239 247 250 246 241 239 233 227 224 221 226 235 243 251 257 257 256 257 258 260 260 260 260 261 262 264 264 262 262 262 264 266 270 278 289 297 300 300 300 299 298 297 297 298 301 303 303 304 304
127 159 185 212 218 123 145 232 265 272 258 256 243 194 188 184 167 155 195 271 277 205 185 189 217 232 228 232 228 199 177 193 288 255 227 225 240 247 250 248 237 229 223 213 212 224 238 252 261 266 270 271 269 266 264 262 263 263 262 262 263 263 264 263 262 261 261 262 265 273 285 294 297 298 299 298 298 297 297 298 300 303 304 304 304 305
46 43 172 207 222 126 171 223 230 236 252 248 223 223 182 166 155 118 89 283 273 198 190 191 201 211 201 189 176 157 140 168 254 260 259 260 255 249 247 240 227 223 222 221 230 245 257 266 271 274 278 279 278 276 271 268 267 264 263 262 262 262 261 260 259 259 259 263 270 282 292 295 295 296 297 297 296 297 298 300 302 304 304 305 305 306
55 36 122 195 210 213 216 228 231 244 262 238 214 206 158 155 139 100 12 269 241 191 190 188 191 201 199 187 171 157 168 203 238 277 287 284 265 250 243 237 233 239 244 245 248 256 264 271 276 281 285 286 286 284 280 275 271 265 263 262 260 259 258 256 256 257 260 268 280 289 294 294 294 295 295 296 296 297 298 301 303 304 304 305 306 307
73 337 212 213 226 227 226 239 265 264 249 232 187 156 142 125 106 128 234 235 186 179 188 192 200 208 201 188 179 190 225 238 260 282 284 276 258 238 230 239 250 255 253 250 253 260 266 272 278 282 285 286 286 284 282 279 274 269 265 263 259 258 256 256 257 260 266 277 287 293 294 293 293 294 295 295 296 297 300 303 304 304 305 306 307 308
159 139 236 227 225 224 230 240 277 281 241 190 160 154 146 126 140 219 206 157 160 178 192 200 209 212 203 201 208 225 244 257 270 274 272 267 255 235 233 251 260 257 251 248 253 260 265 271 275 276 279 281 281 279 278 277 274 270 267 263 260 258 257 258 260 265 273 283 289 292 292 291 293 294 294 296 298 300 302 304 304 304 306 307 308 308
166 153 198 224 192 165 228 221 234 281 216 151 137 131 160 179 215 198 159 154 175 195 208 209 214 217 215 222 233 240 250 262 267 266 265 260 251 246 251 260 263 259 251 248 254 260 264 268 271 272 274 277 276 275 273 272 271 270 267 263 261 260 260 261 264 271 280 287 289 290 290 291 293 294 295 297 299 302 303 304 304 305 306 307 308 308
190 169 182 224 189 147 190 210 202 266 165 153 150 167 208 210 221 210 180 201 217 224 227 224 229 235 234 237 244 249 257 265 265 261 256 250 249 254 259 263 264 261 253 250 255 262 264 266 267 268 270 272 272 272 269 267 268 267 266 263 262 262 262 263 269 277 284 288 289 289 291 292 293 294 295 298 301 302 304 305 305 306 307 308 309 308
230 200 171 199 202 165 199 222 192 118 158 170 179 202 211 216 229 234 234 242 242 243 246 241 239 243 245 249 255 259 265 267 264 258 250 247 252 260 263 263 263 262 259 256 256 260 263 264 264 264 268 271 272 271 268 265 265 265 264 263 263 263 264 267 274 281 286 288 289 290 291 292 292 294 297 301 303 303 304 305 306 307 308 309 309 309
245 187 140 150 251 251 245 232 186 136 172 184 197 218 225 228 236 238 241 247 247 249 250 244 244 257 267 268 265 265 267 267 262 257 252 254 262 267 267 264 261 262 262 258 256 257 258 257 257 261 268 272 272 270 267 265 263 263 262 263 263 264 267 272 279 284 287 288 290 290 291 292 293 297 300 302 303 304 305 306 307 308 308 309 309 308
257 175 162 176 229 240 249 216 185 179 185 188 201 219 227 232 237 239 243 249 253 254 249 245 255 273 279 276 270 268 270 269 263 260 258 261 268 271 269 266 264 263 263 262 259 256 253 252 255 263 270 273 272 270 267 263 261 261 261 262 264 266 271 277 282 285 286 288 289 290 291 293 296 299 302 302 303 304 305 305 307 307 308 309 309 308
228 172 177 225 213 204 237 225 186 184 195 199 207 218 226 235 240 241 245 250 255 254 248 247 259 273 278 278 274 271 272 271 267 265 264 266 270 272 271 268 266 264 263 264 262 254 248 250 258 267 273 274 272 269 265 261 260 259 260 262 266 270 276 281 283 285 286 287 289 290 292 295 298 300 302 302 303 304 305 306 306 306 307 308 308 307
159 162 183 209 210 223 253 224 149 120 251 226 219 223 234 243 246 246 250 253 252 250 247 250 262 275 281 283 281 276 273 272 272 270 267 268 272 274 275 273 269 264 263 264 262 254 249 253 264 273 277 274 270 265 262 260 259 259 261 265 269 274 279 281 282 284 286 288 290 292 295 297 299 300 301 302 303 304 305 305 306 306 306 307 306 306
155 189 180 163 207 234 229 196 181 188 257 239 234 239 245 248 249 249 252 254 253 254 256 260 269 278 281 281 281 279 276 277 279 275 271 270 272 275 279 279 271 264 262 263 259 251 249 258 270 277 277 274 269 265 262 259 259 261 264 269 273 277 279 281 282 285 287 289 291 293 296 298 299 300 301 302 303 304 305 305 305 305 306 307 306 307
197 210 185 183 223 230 211 213 213 212 230 248 253 257 256 251 250 250 252 256 258 260 264 268 272 277 278 277 278 279 278 280 282 279 275 274 273 277 283 281 270 262 261 262 256 250 252 263 273 277 277 275 271 266 262 260 261 264 268 271 275 277 278 280 282 284 287 289 291 293 295 297 298 299 300 302 303 305 305 305 304 302 303 304 303 303
Height
1537 1539 1539 1536 1534 1534 1534 1534 1532 1533 1536 1538 1539 1542 1543 1544 1542 1538 1536 1534 1535 1537 1535 1533 1534 1533 1528 1527 1530 1531 1529 1530 1531 1532 1532 1532 1532 1531 1531 1531 1530 1530 1530 1529 1529 1528 1527 1526 1525 1525 1525 1524 1523 1523 1522 1522 1522 1521 1521 1522 1521 1521 1522 1522 1523 1523 1522 1522 1521 1521 1521 1521 1521 1521 1521 1522 1522 1523 1524 1525 1526 1527 1528 1528 1529 1530
1537 1539 1536 1529 1528 1531 1532 1533 1534 1535 1537 1539 1540 1542 1543 1544 1542 1536 1535 1533 1534 1536 1534 1533 1534 1531 1526 1527 1531 1531 1530 1531 1532 1532 1533 1533 1533 1532 1532 1532 1531 1531 1531 1531 1530 1529 1528 1527 1527 1526 1526 1525 1525 1524 1524 1523 1523 1523 1523 1523 1522 1523 1523 1523 1523 1524 1524 1523 1523 1522 1521 1521 1521 1521 1521 1522 1522 1523 1524 1525 1525 1526 1527 1528 1528 1528
1540 1538 1530 1526 1529 1531 1532 1534 1535 1537 1538 1540 1542 1543 1543 1542 1540 1535 1533 1533 1534 1534 1533 1533 1533 1528 1526 1530 1532 1530 1530 1532 1532 1532 1533 1533 1533 1533 1533 1532 1533 1533 1532 1531 1530 1530 1529 1529 1529 1529 1528 1527 1526 1526 1525 1525 1525 1525 1525 1524 1524 1524 1524 1524 1525 1525 1525 1525 1525 1524 1523 1522 1521 1521 1521 1522 1522 1523 1524 1524 1525 1526 1527 1527 1528 1528
1539 1533 1525 1526 1530 1531 1533 1534 1536 1538 1539 1540 1541 1542 1541 1540 1541 1536 1532 1532 1533 1533 1533 1533 1533 1528 1526 1530 1533 1533 1532 1532 1533 1532 1533 1533 1533 1533 1534 1533 1534 1534 1533 1532 1531 1531 1531 1531 1531 1530 1530 1529 1529 1528 1528 1528 1528 1527 1527 1527 1527 1527 1526 1526 1526 1527 1527 1527 1527 1526 1525 1524 1523 1522 1522 1522 1522 1523 1524 1524 1525 1526 1527 1527 1527 1528
1531 1525 1524 1527 1529 1531 1532 1533 1536 1538 1539 1539 1538 1539 1538 1536 1537 1536 1534 1533 1532 1533 1533 1532 1532 1527 1522 1524 1530 1534 1534 1533 1533 1533 1533 1534 1534 1534 1534 1534 1535 1534 1534 1533 1532 1532 1532 1532 1532 1532 1532 1532 1531 1530 1530 1530 1530 1529 1529 1529 1529 1529 1529 1528 1528 1528 1529 1529 1529 1528 1528 1527 1525 1524 1524 1523 1523 1524 1524 1525 1526 1526 1527 1527 1528 1528
1527 1523 1525 1527 1529 1531 1531 1531 1533 1535 1538 1537 1532 1532 1532 1532 1533 1534 1536 1536 1535 1534 1534 1534 1532 1524 1518 1521 1528 1534 1535 1534 1535 1534 1534 1534 1534 1535 1535 1535 1535 1535 1534 1534 1534 1534 1534 1534 1534 1533 1534 1534 1533 1532 1532 1532 1532 1532 1532 1532 1532 1531 1531 1531 1531 1531 1531 1531 1531 1531 1530 1529 1528 1527 1526 1525 1525 1525 1526 1526 1527 1527 1528 1528 1528 1528
1526 1523 1524 1526 1528 1530 1531 1531 1531 1532 1536 1535 1529 1526 1529 1530 1532 1535 1536 1537 1537 1535 1535 1536 1534 1527 1519 1518 1527 1533 1534 1535 1535 1534 1534 1534 1534 1535 1535 1535 1536 1535 1535 1535 1535 1535 1535 1535 1535 1535 1535 1535 1534 1534 1535 1535 1534 1534 1534 1534 1534 1533 1533 1533 1533 1534 1534 1534 1534 1533 1533 1531 1530 1529 1527 1527 1527 1526 1526 1527 1527 1528 1528 1529 1529 1528
1523 1522 1525 1526 1528 1530 1531 1529 1529 1530 1533 1532 1527 1526 1527 1528 1531 1533 1534 1535 1536 1536 1536 1534 1533 1532 1523 1519 1528 1532 1531 1534 1535 1534 1534 1534 1534 1534 1535 1535 1535 1535 1535 1536 1536 1536 1536 1536 1536 1536 1536 1536 1536 1536 1537 1537 1536 1536 1536 1535 1535 1535 1535 1535 1536 1536 1536 1536 1535 1535 1534 1533 1532 1530 1529 1529 1528 1528 1527 1528 1528 1528 1529 1529 1529 1529
1521 1522 1524 1525 1528 1530 1528 1525 1526 1528 1528 1528 1528 1529 1529 1529 1531 1533 1533 1535 1539 1540 1538 1533 1533 1535 1524 1521 1532 1532 1526 1529 1532 1534 1534 1534 1534 1534 1534 1535 1535 1535 1536 1536 1536 1536 1537 1536 1536 1536 1536 1537 1537 1538 1538 1538 1537 1537 1537 1537 1536 1537 1536 1537 1537 1537 1537 1537 1536 1536 1535 1534 1533 1532 1531 1530 1530 1529 1529 1529 1528 1529 1529 1529 1529 1529
1522 1523 1522 1524 1526 1525 1523 1524 1526 1526 1525 1526 1530 1531 1530 1532 1534 1534 1533 1534 1538 1540 1537 1532 1533 1534 1522 1518 1530 1532 1523 1522 1528 1533 1533 1533 1534 1534 1534 1535 1535 1536 1536 1537 1537 1537 1537 1536 1536 1537 1537 1538 1538 1539 1539 1539 1539 1538 1538 1538 1537 1537 1537 1538 1538 1538 1538 1537 1537 1537 1536 1536 1535 1534 1533 1532 1531 1531 1530 1530 1529 1529 1529 1529 1529 1528
1522 1522 1522 1522 1522 1521 1522 1526 1527 1527 1526 1527 1528 1528 1530 1533 1534 1536 1537 1536 1536 1536 1531 1526 1528 1531 1524 1516 1521 1526 1521 1520 1525 1531 1532 1533 1533 1533 1534 1534 1534 1535 1536 1536 1537 1536 1537 1536 1537 1537 1538 1539 1539 1539 1539 1539 1539 1539 1538 1538 1537 1537 1538 1538 1539 1539 1539 1538 1538 1538 1538 1537 1536 1535 1535 1533 1532 1531 1531 1530 1529 1529 1528 1528 1528 1528
1523 1522 1521 1519 1519 1520 1522 1525 1528 1528 1528 1528 1527 1527 1530 1533 1534 1536 1538 1538 1538 1533 1528 1529 1531 1533 1527 1514 1513 1519 1521 1523 1523 1524 1527 1530 1531 1532 1533 1533 1534 1535 1535 1536 1536 1536 1536 1536 1537 1538 1538 1539 1539 1539 1540 1540 1540 1539 1539 1538 1538 1538 1538 1539 1539 1539 1539 1539 1539 1540 1539 1539 1538 1537 1536 1534 1532 1531 1531 1530 1529 1529 1528 1527 1527 1527
1521 1519 1519 1518 1518 1519 1520 1524 1529 1530 1530 1529 1528 1529 1534 1538 1539 1538 1538 1542 1540 1532 1534 1538 1535 1532 1522 1509 1512 1517 1520 1523 1522 1521 1523 1525 1527 1530 1531 1532 1533 1534 1534 1535 1535 1535 1535 1536 1537 1538 1538 1538 1539 1539 1540 1539 1540 1539 1538 1538 1538 1538 1539 1539 1540 1540 1540 1540 1540 1540 1540 1539 1539 1537 1536 1534 1533 1531 1530 1529 1529 1528 1528 1527 1527 1527
1520 1517 1518 1518 1517 1516 1516 1521 1526 1527 1529 1529 1527 1529 1534 1541 1545 1541 1542 1547 1540 1530 1537 1541 1536 1529 1516 1508 1517 1522 1520 1522 1520 1519 1521 1522 1525 1527 1528 1530 1531 1532 1533 1533 1534 1534 1534 1535 1536 1537 1537 1538 1538 1539 1539 1539 1539 1539 1539 1538 1538 1538 1539 1539 1540 1540 1541 1541 1540 1540 1540 1539 1539 1537 1536 1534 1533 1531 1530 1529 1528 1527 1527 1527 1527 1526
1520 1514 1513 1514 1513 1512 1512 1514 1517 1520 1526 1529 1528 1528 1529 1532 1536 1534 1534 1535 1530 1527 1535 1540 1532 1520 1508 1509 1521 1523 1521 1521 1518 1517 1520 1521 1524 1526 1527 1529 1529 1530 1531 1532 1533 1533 1534 1535 1535 1536 1537 1537 1538 1538 1538 1538 1539 1539 1538 1538 1538 1538 1539 1539 1540 1540 1540 1541 1540 1540 1540 1539 1539 1537 1536 1535 1533 1531 1529 1528 1528 1527 1527 1527 1527 1526
1522 1513 1508 1510 1510 1510 1511 1512 1514 1518 1524 1530 1531 1530 1527 1523 1522 1526 1530 1531 1532 1531 1532 1533 1524 1512 1510 1517 1524 1522 1521 1521 1519 1518 1520 1521 1524 1525 1526 1526 1527 1528 1530 1531 1532 1532 1533 1534 1534 1535 1536 1536 1537 1537 1537 1538 1538 1538 1538 1538 1538 1538 1539 1539 1539 1540 1540 1540 1540 1540 1540 1539 1538 1537 1536 1535 1533 1531 1529 1528 1528 1527 1527 1527 1527 1526
1519 1513 1509 1511 1511 1511 1512 1511 1513 1515 1519 1528 1531 1525 1524 1523 1519 1524 1533 1536 1539 1535 1527 1524 1517 1510 1511 1516 1522 1523 1522 1522 1522 1521 1521 1522 1523 1524 1524 1525 1526 1527 1528 1529 1530 1531 1532 1533 1533 1534 1535 1535 1536 1536 1537 1537 1537 1538 1537 1537 1538 1538 1538 1538 1539 1539 1539 1539 1539 1539 1539 1538 1538 1537 1536 1535 1533 1531 1530 1529 1528 1528 1528 1528 1527 1526
1509 1509 1508 1510 1509 1511 1512 1512 1513 1514 1515 1524 1526 1520 1521 1525 1523 1526 1531 1535 1540 1537 1526 1518 1512 1509 1506 1509 1520 1526 1523 1523 1524 1523 1523 1523 1523 1523 1523 1524 1525 1526 1527 1527 1528 1529 1530 1531 1532 1533 1533 1534 1535 1535 1536 1536 1536 1537 1536 1537 1537 1537 1537 1537 1538 1538 1538 1538 1538 1538 1538 1537 1537 1536 1535 1534 1532 1531 1530 1529 1529 1529 1529 1528 1527 1525
1506 1507 1508 1510 1510 1511 1513 1512 1514 1515 1515 1517 1518 1517 1520 1524 1525 1528 1530 1531 1532 1531 1522 1513 1508 1507 1502 1503 1513 1516 1516 1520 1522 1522 1523 1521 1521 1522 1522 1523 1524 1524 1525 1525 1526 1527 1529 1530 1530 1531 1532 1533 1533 1534 1534 1535 1535 1535 1535 1536 1536 1536 1536 1536 1536 1536 1536 1536 1536 1537 1536 1536 1535 1534 1533 1532 1531 1530 1530 1529 1529 1529 1528 1526 1524 1523
1504 1506 1508 1511 1511 1511 1513 1513 1513 1514 1516 1517 1518 1519 1520 1521 1521 1523 1524 1522 1520 1521 1519 1512 1507 1501 1496 1498 1500 1499 1506 1514 1517 1519 1519 1517 1518 1519 1519 1520 1520 1521 1522 1523 1525 1526 1527 1528 1529 1529 1531 1531 1532 1532 1532 1533 1533 1533 1534 1534 1534 1535 1535 1535 1535 1535 1535 1535 1535 1535 1535 1535 1534 1533 1532 1531 1530 1529 1529 1528 1527 1526 1525 1523 1522 1522
1503 1506 1509 1512 1514 1513 1511 1510 1509 1509 1511 1514 1518 1520 1520 1520 1521 1521 1520 1516 1514 1516 1515 1513 1508 1496 1493 1500 1498 1495 1502 1508 1509 1512 1513 1514 1516 1516 1516 1516 1516 1519 1521 1521 1523 1524 1525 1526 1527 1528 1529 1530 1530 1531 1531 1531 1531 1532 1532 1533 1533 1533 1533 1533 1534 1534 1534 1534 1534 1534 1533 1533 1532 1531 1530 1530 1529 1528 1527 1526 1525 1524 1523 1522 1521 1521
1501 1504 1507 1510 1513 1511 1507 1507 1508 1507 1506 1508 1511 1512 1512 1515 1519 1521 1519 1513 1513 1513 1509 1510 1507 1494 1493 1503 1502 1500 1503 1504 1505 1508 1510 1512 1513 1512 1513 1514 1516 1519 1519 1520 1522 1522 1524 1524 1525 1526 1527 1528 1528 1529 1529 1530 1530 1530 1531 1531 1531 1531 1532 1532 1532 1532 1533 1532 1532 1532 1532 1531 1530 1530 1529 1528 1528 1527 1526 1525 1524 1523 1522 1521 1520 1519
1498 1501 1503 1506 1508 1507 1506 1507 1509 1508 1506 1507 1508 1508 1509 1511 1512 1513 1512 1509 1511 1513 1510 1511 1508 1497 1498 1506 1504 1503 1503 1503 1504 1506 1508 1509 1509 1510 1513 1515 1518 1519 1518 1520 1520 1521 1522 1523 1524 1525 1525 1526 1526 1527 1528 1528 1528 1529 1529 1529 1530 1530 1530 1531 1531 1531 1531 1531 1531 1530 1530 1529 1529 1528 1528 1527 1526 1525 1525 1523 1522 1522 1521 1520 1519 1518
1497 1500 1502 1503 1504 1506 1508 1507 1507 1508 1508 1508 1508 1508 1510 1510 1507 1508 1509 1508 1510 1508 1507 1513 1508 1496 1499 1505 1503 1503 1502 1502 1504 1504 1505 1507 1508 1510 1513 1515 1517 1517 1517 1518 1519 1519 1521 1521 1522 1523 1523 1524 1525 1525 1526 1526 1526 1527 1527 1528 1528 1528 1529 1529 1529 1530 1530 1530 1530 1529 1529 1528 1527 1527 1526 1526 1525 1524 1523 1522 1521 1520 1519 1518 1517 1516
1494 1497 1501 1506 1508 1509 1510 1509 1508 1508 1508 1508 1508 1510 1511 1509 1510 1513 1512 1513 1514 1505 1503 1510 1502 1492 1498 1504 1502 1503 1502 1502 1504 1505 1505 1507 1508 1510 1513 1514 1514 1514 1515 1516 1517 1518 1518 1519 1520 1520 1521 1522 1523 1523 1524 1524 1525 1525 1526 1526 1527 1527 1528 1528 1528 1528 1528 1528 1528 1527 1527 1526 1526 1525 1525 1524 1523 1522 1521 1520 1519 1518 1517 1516 1515 1514
1491 1495 1497 1502 1506 1506 1505 1505 1506 1505 1507 1509 1509 1509 1509 1509 1510 1510 1509 1512 1513 1505 1501 1501 1495 1492 1500 1502 1500 1502 1504 1504 1504 1505 1507 1508 1509 1511 1511 1512 1512 1512 1513 1514 1515 1516 1516 1517 1518 1518 1519 1520 1521 1522 1522 1522 1523 1524 1524 1525 1525 1526 1526 1526 1527 1527 1527 1527 1526 1526 1525 1524 1524 1523 1523 1522 1522 1521 1520 1519 1518 1517 1515 1514 1513 1512
1492 1495 1493 1493 1495 1495 1494 1497 1502 1503 1503 1504 1505 1504 1505 1508 1508 1508 1510 1510 1508 1505 1502 1496 1494 1497 1499 1499 1500 1502 1503 1504 1504 1505 1506 1507 1507 1508 1508 1509 1510 1510 1512 1512 1513 1514 1515 1515 1516 1516 1518 1518 1519 1520 1520 1521 1522 1522 1523 1523 1523 1524 1524 1525 1525 1525 1525 1525 1524 1524 1523 1523 1522 1522 1521 1521 1520 1519 1518 1517 1516 1515 1514 1512 1511 1510
1492 1493 1491 1491 1491 1491 1493 1496 1501 1503 1500 1499 1501 1500 1502 1508 1509 1508 1508 1504 1501 1505 1502 1494 1497 1500 1496 1496 1501 1500 1501 1503 1503 1503 1504 1504 1504 1505 1506 1508 1508 1509 1510 1510 1511 1512 1512 1513 1514 1515 1516 1516 1517 1518 1518 1519 1520 1520 1521 1521 1522 1522 1522 1523 1523 1522 1523 1523 1522 1522 1521 1521 1521 1520 1519 1519 1518 1517 1516 1515 1514 1512 1511 1510 1508 1507
1490 1490 1488 1492 1493 1494 1497 1499 1501 1502 1501 1500 1500 1498 1500 1507 1508 1506 1504 1500 1500 1501 1496 1492 1498 1499 1494 1495 1499 1498 1499 1500 1501 1502 1502 1502 1503 1504 1505 1506 1506 1506 1506 1507 1508 1509 1510 1511 1511 1512 1513 1514 1515 1515 1516 1517 1518 1518 1519 1519 1520 1520 1520 1521 1521 1520 1521 1520 1520 1520 1519 1519 1518 1517 1517 1516 1515 1515 1513 1512 1511 1509 1508 1507 1505 1504
1488 1488 1488 1492 1494 1495 1499 1501 1502 1504 1504 1502 1500 1498 1500 1506 1506 1503 1501 1501 1503 1502 1495 1494 1499 1498 1494 1495 1497 1497 1498 1499 1500 1500 1499 1500 1501 1502 1503 1503 1503 1503 1503 1504 1506 1507 1508 1509 1509 1510 1511 1512 1513 1513 1514 1515 1516 1516 1517 1518 1518 1519 1519 1519 1519 1518 1518 1518 1518 1517 1517 1517 1516 1515 1515 1514 1513 1512 1510 1509 1508 1506 1505 1503 1502 1500
1487 1489 1491 1493 1494 1496 1499 1503 1506 1507 1507 1504 1500 1499 1503 1507 1505 1503 1503 1504 1506 1504 1499 1500 1503 1499 1493 1493 1495 1496 1497 1498 1498 1497 1497 1498 1499 1499 1500 1500 1500 1500 1501 1502 1504 1505 1506 1506 1507 1508 1509 1509 1510 1511 1512 1513 1514 1514 1515 1516 1516 1517 1517 1517 1516 1516 1515 1515 1515 1515 1514 1514 1513 1513 1512 1511 1510 1509 1507 1506 1505 1503 1502 1500 1499 1497
1485 1490 1493 1494 1495 1495 1499 1506 1506 1506 1509 1507 1501 1500 1505 1505 1499 1499 1502 1502 1500 1498 1499 1503 1504 1497 1491 1491 1495 1495 1494 1495 1495 1495 1495 1496 1496 1497 1497 1497 1498 1499 1500 1501 1502 1503 1504 1504 1505 1505 1506 1507 1508 1509 1510 1511 1512 1512 1513 1514 1514 1514 1514 1514 1513 1513 1512 1512 1512 1512 1512 1512 1511 1511 1510 1509 1508 1506 1505 1503 1501 1500 1498 1497 1495 1493
1483 1486 1490 1493 1493 1495 1503 1508 1506 1508 1509 1500 1489 1491 1498 1498 1495 1496 1498 1495 1492 1493 1497 1498 1495 1490 1489 1492 1493 1492 1492 1493 1493 1492 1493 1493 1493 1494 1494 1495 1496 1497 1498 1499 1500 1501 1501 1501 1502 1503 1504 1505 1506 1506 1508 1508 1509 1510 1510 1511 1511 1511 1511 1511 1510 1510 1509 1509 1509 1509 1509 1509 1509 1508 1507 1506 1505 1503 1502 1500 1498 1497 1495 1493 1492 1489
1483 1483 1487 1490 1491 1498 1507 1508 1508 1508 1499 1485 1480 1484 1489 1491 1492 1493 1491 1488 1488 1490 1491 1489 1488 1488 1489 1490 1489 1488 1489 1490 1490 1490 1491 1491 1491 1492 1492 1494 1495 1495 1496 1497 1497 1498 1499 1499 1500 1501 1502 1503 1504 1504 1506 1506 1507 1507 1508 1508 1508 1508 1508 1507 1507 1507 1506 1506 1506 1506 1506 1506 1506 1505 1504 1503 1501 1499 1498 1497 1495 1493 1491 1489 1488 1485
1482 1484 1488 1490 1493 1504 1511 1508 1504 1497 1484 1478 1484 1486 1485 1486 1488 1488 1487 1485 1486 1487 1486 1486 1487 1487 1486 1486 1485 1486 1487 1488 1488 1488 1488 1489 1490 1490 1491 1492 1492 1493 1494 1494 1495 1496 1497 1497 1498 1499 1500 1501 1501 1502 1503 1504 1504 1505 1505 1505 1505 1505 1505 1504 1504 1504 1503 1503 1503 1503 1503 1503 1502 1501 1500 1499 1497 1495 1494 1492 1491 1489 1488 1485 1483 1481
1479 1482 1486 1491 1497 1506 1510 1504 1490 1480 1476 1479 1484 1485 1486 1488 1487 1488 1488 1484 1482 1482 1483 1485 1485 1482 1483 1483 1484 1485 1486 1486 1487 1486 1486 1488 1488 1488 1489 1490 1490 1491 1491 1492 1493 1494 1495 1496 1496 1497 1498 1499 1500 1500 1501 1501 1502 1502 1501 1501 1501 1501 1501 1501 1500 1500 1500 1500 1500 1500 1500 1500 1499 1498 1496 1495 1493 1491 1490 1488 1487 1485 1483 1481 1479 1476
1476 1479 1482 1487 1490 1494 1500 1497 1485 1480 1481 1476 1475 1478 1481 1481 1481 1484 1485 1480 1475 1476 1480 1483 1482 1480 1480 1482 1482 1484 1485 1486 1485 1484 1485 1486 1486 1487 1487 1488 1489 1489 1490 1491 1492 1492 1493 1494 1495 1495 1496 1497 1498 1498 1498 1499 1499 1498 1498 1498 1498 1498 1498 1497 1497 1497 1497 1497 1497 1497 1497 1496 1495 1494 1492 1491 1489 1487 1486 1484 1483 1480 1478 1476 1473 1472
1476 1477 1477 1480 1482 1486 1493 1495 1490 1489 1482 1470 1468 1473 1474 1475 1477 1479 1482 1479 1473 1473 1476 1477 1477 1477 1478 1481 1482 1483 1484 1485 1484 1482 1483 1484 1485 1485 1486 1486 1487 1488 1488 1489 1490 1491 1492 1492 1492 1493 1494 1494 1495 1495 1495 1495 1495 1495 1495 1495 1495 1495 1494 1494 1494 1494 1494 1494 1494 1494 1493 1493 1491 1490 1488 1487 1485 1483 1482 1480 1478 1476 1473 1471 1468 1466
1478 1478 1477 1479 1483 1485 1490 1490 1486 1482 1472 1465 1468 1472 1472 1475 1476 1478 1485 1482 1471 1469 1472 1472 1474 1477 1477 1478 1480 1481 1483 1484 1482 1480 1481 1483 1483 1483 1484 1484 1485 1486 1487 1487 1488 1488 1489 1489 1490 1490 1491 1491 1491 1491 1491 1492 1492 1492 1492 1492 1492 1492 1491 1491 1491 1491 1491 1491 1491 1490 1490 1489 1488 1486 1484 1483 1481 1479 1477 1475 1473 1471 1469 1466 1464 1461
1482 1482 1481 1482 1483 1481 1484 1485 1482 1475 1468 1466 1469 1471 1473 1474 1474 1480 1488 1480 1467 1467 1470 1470 1472 1474 1474 1475 1478 1479 1480 1480 1479 1479 1480 1481 1481 1481 1482 1483 1483 1484 1485 1485 1485 1486 1486 1486 1487 1487 1487 1488 1488 1488 1488 1488 1488 1488 1488 1488 1488 1488 1488 1488 1488 1488 1488 1487 1487 1487 1486 1485 1483 1482 1480 1479 1477 1475 1474 1471 1469 1467 1464 1462 1459 1457
1486 1485 1484 1482 1482 1481 1482 1484 1481 1474 1468 1468 1470 1470 1471 1475 1478 1480 1477 1468 1464 1468 1469 1469 1471 1471 1471 1474 1475 1475 1476 1475 1476 1477 1478 1479 1479 1479 1480 1481 1481 1482 1482 1482 1482 1483 1483 1483 1484 1484 1484 1485 1484 1484 1485 1485 1485 1485 1485 1485 1485 1484 1484 1484 1484 1484 1484 1484 1484 1483 1482 1481 1479 1478 1476 1475 1473 1471 1469 1467 1465 1462 1460 1457 1454 1452
1483 1487 1487 1483 1482 1483 1481 1483 1485 1476 1463 1463 1468 1470 1470 1474 1475 1471 1464 1461 1465 1467 1466 1468 1469 1469 1470 1472 1471 1472 1472 1473 1474 1475 1475 1476 1477 1477 1478 1479 1479 1479 1479 1479 1479 1480 1480 1480 1481 1481 1481 1481 1481 1481 1481 1482 1481 1481 1481 1481 1481 1481 1481 1481 1481 1481 1481 1480 1480 1479 1478 1476 1475 1473 1472 1470 1469 1467 1465 1463 1460 1458 1455 1453 1450 1447
1470 1479 1485 1479 1476 1481 1484 1487 1489 1475 1456 1454 1464 1470 1470 1468 1463 1460 1460 1462 1464 1464 1465 1467 1467 1467 1469 1469 1469 1470 1470 1471 1472 1472 1473 1474 1474 1474 1475 1476 1476 1477 1476 1476 1477 1477 1477 1477 1477 1477 1478 1478 1478 1478 1478 1478 1478 1478 1478 1478 1477 1478 1477 1477 1478 1477 1477 1476 1476 1474 1473 1472 1470 1469 1468 1466 1464 1462 1460 1458 1456 1453 1451 1448 1446 1443
1460 1467 1474 1469 1467 1477 1482 1476 1467 1457 1449 1451 1457 1460 1461 1458 1455 1457 1460 1461 1461 1462 1464 1464 1464 1466 1467 1467 1468 1469 1468 1469 1469 1469 1470 1471 1471 1472 1472 1473 1473 1473 1473 1473 1474 1473 1474 1474 1474 1474 1474 1474 1474 1474 1474 1474 1474 1474 1474 1474 1474 1474 1474 1474 1474 1473 1473 1472 1471 1470 1469 1468 1466 1465 1463 1462 1460 1457 1455 1453 1451 1449 1446 1444 1442 1439
1451 1452 1457 1456 1456 1461 1461 1453 1447 1447 1450 1452 1452 1452 1454 1454 1454 1457 1458 1458 1460 1461 1461 1462 1463 1464 1464 1465 1466 1466 1466 1466 1466 1466 1467 1467 1467 1469 1469 1469 1470 1470 1470 1470 1470 1470 1470 1470 1470 1470 1470 1470 1471 1470 1470 1471 1470 1470 1470 1470 1470 1470 1470 1470 1470 1469 1469 1468 1467 1466 1465 1463 1462 1461 1459 1457 1455 1453 1451 1449 1446 1444 1442 1440 1438 1435
1448 1449 1450 1450 1450 1450 1447 1445 1446 1448 1449 1450 1451 1452 1453 1453 1454 1455 1455 1456 1458 1458 1459 1460 1461 1461 1463 1463 1463 1463 1463 1463 1462 1463 1463 1464 1464 1465 1465 1465 1466 1466 1466 1466 1466 1467 1467 1466 1467 1467 1467 1467 1467 1467 1467 1467 1466 1466 1466 1466 1466 1466 1466 1466 1466 1465 1464 1464 1462 1462 1460 1459 1458 1456 1454 1453 1451 1448 1446 1444 1442 1439 1437 1436 1434 1431
1447 1448 1449 1449 1449 1447 1443 1443 1445 1446 1447 1449 1450 1450 1451 1452 1452 1453 1453 1454 1455 1456 1457 1458 1458 1459 1460 1460 1459 1459 1459 1459 1459 1459 1460 1460 1460 1461 1461 1461 1462 1462 1462 1462 1462 1463 1463 1463 1463 1463 1463 1463 1463 1463 1463 1463 1463 1463 1463 1462 1462 1462 1462 1462 1461 1461 1460 1459 1458 1457 1456 1454 1453 1452 1450 1448 1446 1444 1442 1440 1438 1435 1433 1432 1430 1427
1443 1445 1448 1447 1446 1444 1441 1441 1443 1445 1446 1447 1448 1448 1449 1449 1449 1450 1451 1452 1453 1454 1454 1454 1455 1456 1456 1456 1456 1455 1455 1456 1456 1455 1456 1457 1457 1456 1457 1457 1457 1458 1458 1458 1458 1459 1459 1459 1459 1459 1459 1460 1459 1459 1459 1459 1459 1459 1459 1458 1458 1458 1458 1457 1457 1456 1456 1455 1454 1453 1451 1450 1449 1447 1445 1444 1442 1440 1438 1436 1434 1432 1430 1428 1426 1423
1441 1442 1443 1443 1443 1442 1440 1441 1444 1446 1446 1446 1446 1446 1445 1445 1446 1448 1449 1449 1449 1450 1450 1451 1452 1452 1452 1452 1452 1452 1452 1452 1452 1452 1452 1452 1452 1452 1453 1453 1453 1453 1454 1454 1454 1454 1454 1455 1455 1456 1456 1456 1455 1455 1455 1455 1455 1455 1455 1455 1454 1454 1454 1453 1452 1452 1451 1450 1450 1448 1447 1446 1444 1442 1441 1439 1437 1435 1433 1432 1430 1428 1426 1425 1423 1420
1439 1439 1439 1440 1440 1439 1438 1438 1440 1443 1443 1441 1441 1441 1441 1443 1444 1445 1445 1446 1446 1446 1447 1448 1448 1449 1449 1449 1448 1448 1448 1447 1447 1448 1448 1447 1448 1448 1449 1449 1449 1449 1449 1450 1450 1450 1451 1451 1451 1452 1452 1452 1451 1451 1451 1451 1452 1451 1451 1451 1450 1450 1450 1449 1448 1448 1447 1446 1446 1444 1443 1441 1440 1438 1436 1435 1432 1431 1429 1427 1426 1425 1422 1420 1419 1417
1431 1430 1431 1433 1432 1432 1433 1433 1435 1437 1437 1436 1437 1437 1438 1440 1441 1442 1442 1442 1442 1443 1444 1445 1445 1445 1445 1445 1445 1445 1444 1443 1443 1443 1443 1443 1443 1444 1444 1445 1445 1445 1445 1446 1445 1446 1447 1447 1447 1448 1447 1447 1447 1447 1447 1448 1448 1447 1447 1446 1446 1445 1445 1444 1444 1443 1443 1442 1441 1440 1438 1437 1435 1434 1432 1430 1428 1426 1424 1422 1422 1422 1421 1418 1415 1413